User: anonymous   Login
Location: Gauravaram
(16.6995°N, 80.5417°E)
Time: 21:07:06
(UTC+00:00)
Language:

CZ-4C R/B - Orbit

View from above orbital plane
View from above orbital plane
View from above satellite
View from above satellite

Ground track
Ground track

The orbit data is extracted from the following two-line orbital elements,

1 36416U 10009D   24281.47621758  .00004224  00000-0  10542-2 0  9993
2 36416  63.3980 280.7942 0644818 359.4625   0.5649 13.71174271730006
Epoch (UTC): 07 October 2024 11:25:45
Eccentricity: 0.0644818
inclination: 63.3980°
perigee height: 520 km
apogee height: 1471 km
right ascension of ascending node: 280.7942°
argument of perigee: 359.4625°
revolutions per day: 13.71174271
mean anomaly at epoch: 0.5649°
orbit number at epoch: 73000

The dashed part of the orbit path shows where the satellite is in the earth's shadow,  

DLR